Miscellaneous Local Product
Issued by NWS North Platte, NE

Home | Current Version | Previous Version | Text Only | Print | Product List | Glossary On
Versions: 1 2 3 4 5 6 7 8 9 10 11 12 13 14 15 16 17 18 19 20 21 22 23 24 25 26 27 28 29 30 31 32 33 34 35 36 37 38 39 40 41 42 43 44 45 46 47 48 49 50
000
AXUS43 KLBF 010110
MISLBF


WESTERN AND NORTH CENTRAL NEBRASKA HOURLY WEATHER ROUNDUP
NATIONAL WEATHER SERVICE NORTH PLATTE NE
800 PM CDT FRI JUL 31 2015

***STATIONS NOT REPORTING VARIABLES SUCH AS SKY/WEATHER OR
PRESSURE ARE PROVIDED BY THE NEBRASKA DEPARTMENT OF
ROADS...RAWS...AND APRS NETWORKS...AND ARE NOT UNDER
NATIONAL WEATHER SERVICE QUALITY CONTROL***

...OBSERVATIONS IN AND NEAR THE EASTERN PANHANDLE OF NEBRASKA...

CITY           SKY/WX    TMP DP  RH WIND       PRES   REMARKS
PINE RIDGE     SUNNY     86  53  32 E9        30.10S
CHADRON        MOSUNNY   85  54  34 SW13      30.09S
ALLIANCE       SUNNY     84  55  36 SE8       30.13F
SIDNEY         MOSUNNY   88  47  24 SE6       30.16F
BIG SPRINGS      N/A     85  67  54 E3          N/A
$$

...OBSERVATIONS IN NORTH CENTRAL NEBRASKA...

CITY           SKY/WX    TMP DP  RH WIND       PRES   REMARKS
VALENTINE      SUNNY     89  55  31 E13       30.08R
THEDFORD       CLEAR     89  58  34 CALM      30.09S
AINSWORTH      CLEAR     84  67  56 E3        30.09R
O`NEILL        CLEAR     83  67  58 S9        30.08R
ORD            MOCLDY    72  64  76 S5        30.08F
BROKEN BOW     PTCLDY    79  63  57 SE13      30.10R
SPRINGVIEW       N/A     87  63  44 E9          N/A
CHAMBERS         N/A     85  64  49 CALM        N/A
EWING            N/A     80  69  68 CALM        N/A
$$

...OBSERVATIONS IN SOUTHWEST NEBRASKA AND FAR NORTHEAST COLORADO...

CITY           SKY/WX    TMP DP  RH WIND       PRES   REMARKS
WRAY           MOCLDY    91  53  27 SE6       30.13S
IMPERIAL       SUNNY     91  46  21 E5        30.10S
OGALLALA       MOSUNNY   87  56  35 E3        30.11S
NORTH PLATTE   CLEAR     84  67  56 E6        30.08S
MCCOOK         PTCLDY    91  58  32 SE3       30.06S HX  90
LEXINGTON      CLEAR     90  63  40 SE6       30.07R HX  90
PAXTON           N/A     90  64  42 CALM        N/A  HX  91
BRADY            N/A     88  64  44 CALM        N/A
CALLAWAY         N/A     87  75  67 CALM        N/A  HX  96
$$

...NORTH PLATTE AREA...

CITY           SKY/WX    TMP DP  RH WIND       PRES   REMARKS
AIRPORT        CLEAR     84  67  56 E6        30.08S
DOWNTOWN         N/A     90  57  32 CALM        N/A
SANDRIDGE        N/A     89  62  40 CALM        N/A
HILLCREST        N/A     89  55  31 SE3         N/A
$$

...SOME WEATHER OBSERVATIONS FROM AROUND THE REGION...

CITY           SKY/WX    TMP DP  RH WIND       PRES   REMARKS
DENVER         MOSUNNY   84  49  29 S15       30.21F
LARAMIE        MOSUNNY   70  46  42 SE15      30.34F
CHEYENNE       SUNNY     78  48  34 E8        30.28F
SCOTTSBLUFF    SUNNY     84  58  40 NE7       30.13F
RAPID CITY     MOSUNNY   80  56  43 NE10      30.10F
PIERRE         SUNNY     89  49  25 CALM      30.03S
WINNER         FAIR      86  56  35 E8        30.06F
SIOUX FALLS    PTCLDY    80  60  50 CALM      30.05F
OMAHA          MOCLDY    86  75  69 E5        30.01F HX  95
GRAND ISLAND   TSTM      67  63  87 W18       30.15R FOG
KANSAS CITY    PTCLDY    82  72  71 S3        30.05S
WICHITA        PTCLDY    86  69  56 SE8       30.06S HX  90
HAYS           CLEAR     90  61  37 S8        30.08R
LIBERAL        MOCLDY    81  63  54 SE9       30.14R
GOODLAND       SUNNY     84  60  44 S7        30.15R
$$



USA.gov is the U.S. government's official web portal to all federal, state and local government web resources and services.